EZY28PV EGGD-LIRF

Flight info

Callsign EZY28PV
Flight time 2h 19m
Altitude 37000
Route HAWFA DCT NUCHU L607 ALHAD DCT MID UL612 OGULO DCT OKASI DCT OKEKO DCT MOU DCT MADIV DCT MOKIP DCT TUFTA DCT KOGAS DCT MEDAM DCT NITAM DCT MOGBO DCT ELB DCT ELKAP
Aircraft A320/M-SDE2E3FGHIJ1RWXYZ/LB1

Departure

Time 2026-05-01 12:53
Airport Bristol Airport (EGGD)

Arrival

Time 2026-05-01 15:12
Airport Rome–Fiumicino Leonardo da Vinci International Airport (LIRF)
Time Latitude Longitude Altitude Speed Heading
2026-05-01 12:22 51.38531 -2.71350 618 ft 0 kts 356°
2026-05-01 12:43 51.38512 -2.71348 624 ft 4 kts 356°
2026-05-01 12:43 51.38486 -2.71346 621 ft 3 kts 356°
2026-05-01 12:43 51.38465 -2.71345 619 ft 4 kts 23°
2026-05-01 12:43 51.38449 -2.71370 623 ft 4 kts 82°
2026-05-01 12:44 51.38448 -2.71392 624 ft 0 kts 86°
2026-05-01 12:47 51.38449 -2.71382 622 ft 5 kts 86°
2026-05-01 12:47 51.38453 -2.71264 624 ft 11 kts 86°
2026-05-01 12:48 51.38458 -2.71141 615 ft 11 kts 86°
2026-05-01 12:48 51.38463 -2.71027 614 ft 10 kts 86°
2026-05-01 12:48 51.38467 -2.70925 614 ft 9 kts 86°
2026-05-01 12:48 51.38471 -2.70833 617 ft 9 kts 86°
2026-05-01 12:49 51.38474 -2.70723 610 ft 10 kts 87°
2026-05-01 12:49 51.38478 -2.70611 610 ft 10 kts 87°
2026-05-01 12:49 51.38458 -2.70534 616 ft 3 kts 139°
2026-05-01 12:49 51.38447 -2.70524 617 ft 0 kts 153°
2026-05-01 12:51 51.38441 -2.70520 618 ft 4 kts 153°
2026-05-01 12:51 51.38354 -2.70486 612 ft 3 kts 168°
2026-05-01 12:52 51.38325 -2.70505 622 ft 5 kts 244°
2026-05-01 12:52 51.38318 -2.70594 611 ft 31 kts 265°
2026-05-01 12:52 51.38287 -2.71425 608 ft 115 kts 266°
2026-05-01 12:53 51.38166 -2.74843 1651 ft 163 kts 268°
2026-05-01 12:53 51.38114 -2.76729 2068 ft 179 kts 264°
2026-05-01 12:53 51.38043 -2.78821 2335 ft 197 kts 264°
2026-05-01 12:54 51.37962 -2.81092 2613 ft 218 kts 264°
2026-05-01 12:54 51.37825 -2.86242 3658 ft 240 kts 271°
2026-05-01 12:54 51.38216 -2.88868 4343 ft 247 kts 291°
2026-05-01 12:55 51.40646 -2.92790 5450 ft 261 kts 335°
2026-05-01 12:55 51.42434 -2.93403 5954 ft 267 kts 360°
2026-05-01 12:55 51.44255 -2.92854 6438 ft 269 kts 25°
2026-05-01 12:56 51.45767 -2.91270 6836 ft 267 kts 47°
2026-05-01 12:56 51.46812 -2.88845 7409 ft 264 kts 71°
2026-05-01 12:56 51.47203 -2.86012 7844 ft 260 kts 92°
2026-05-01 12:56 51.47278 -2.83104 8325 ft 262 kts 92°
2026-05-01 12:57 51.47304 -2.80155 8612 ft 273 kts 96°
2026-05-01 12:57 51.47081 -2.73886 9285 ft 287 kts 98°
2026-05-01 12:57 51.46936 -2.70679 10090 ft 290 kts 98°
2026-05-01 12:58 51.46786 -2.67409 10524 ft 306 kts 98°
2026-05-01 12:58 51.46624 -2.63864 10801 ft 326 kts 98°
2026-05-01 12:58 51.46465 -2.60190 11401 ft 333 kts 97°
2026-05-01 12:59 51.46157 -2.52692 12818 ft 340 kts 97°
2026-05-01 12:59 51.46003 -2.48884 13528 ft 344 kts 98°
2026-05-01 12:59 51.45688 -2.41161 14800 ft 350 kts 98°
2026-05-01 13:00 51.45356 -2.33297 16045 ft 356 kts 98°
2026-05-01 13:00 51.45184 -2.29325 16645 ft 359 kts 98°
2026-05-01 13:01 51.44826 -2.21281 17865 ft 365 kts 98°
2026-05-01 13:01 51.44642 -2.17209 18450 ft 368 kts 98°
2026-05-01 13:01 51.44270 -2.08973 19472 ft 374 kts 98°
2026-05-01 13:02 51.44081 -2.04791 19986 ft 376 kts 98°
2026-05-01 13:07 51.37816 -1.13315 28301 ft 413 kts 124°
2026-05-01 13:07 51.36113 -1.09623 28623 ft 412 kts 134°
2026-05-01 13:07 51.34087 -1.06380 28943 ft 413 kts 138°
2026-05-01 13:08 51.32040 -1.03229 29289 ft 415 kts 138°
2026-05-01 13:08 51.29930 -0.99988 29671 ft 416 kts 138°
2026-05-01 13:08 51.27868 -0.96823 29987 ft 417 kts 138°
2026-05-01 13:08 51.25773 -0.93604 30270 ft 419 kts 139°
2026-05-01 13:09 51.23651 -0.90346 30605 ft 419 kts 139°
2026-05-01 13:09 51.21545 -0.87117 30856 ft 420 kts 139°
2026-05-01 13:09 51.19436 -0.83886 31098 ft 422 kts 139°
2026-05-01 13:09 51.17317 -0.80644 31405 ft 422 kts 139°
2026-05-01 13:10 51.15201 -0.77413 31731 ft 421 kts 139°
2026-05-01 13:10 51.13086 -0.74192 32043 ft 421 kts 139°
2026-05-01 13:10 51.10966 -0.70966 32361 ft 421 kts 139°
2026-05-01 13:10 51.08855 -0.67761 32661 ft 420 kts 139°
2026-05-01 13:11 51.06740 -0.64547 32969 ft 420 kts 139°
2026-05-01 13:11 51.04517 -0.61564 33292 ft 418 kts 147°
2026-05-01 13:11 51.02108 -0.58970 33616 ft 417 kts 148°
2026-05-01 13:11 50.99699 -0.56405 33927 ft 417 kts 148°
2026-05-01 13:12 50.97291 -0.53844 34239 ft 417 kts 148°
2026-05-01 13:12 50.94884 -0.51285 34499 ft 417 kts 148°
2026-05-01 13:12 50.92477 -0.48722 34744 ft 417 kts 148°
2026-05-01 13:12 50.90069 -0.46160 34986 ft 417 kts 148°
2026-05-01 13:13 50.87661 -0.43610 35214 ft 417 kts 148°
2026-05-01 13:13 50.85250 -0.41061 35425 ft 417 kts 148°
2026-05-01 13:13 50.82833 -0.38506 35642 ft 417 kts 148°
2026-05-01 13:13 50.80421 -0.35955 35849 ft 418 kts 148°
2026-05-01 13:14 50.78004 -0.33402 36062 ft 418 kts 148°
2026-05-01 13:14 50.75590 -0.30851 36249 ft 418 kts 148°
2026-05-01 13:14 50.73176 -0.28306 36463 ft 418 kts 148°
2026-05-01 13:14 50.70758 -0.25761 36649 ft 418 kts 148°
2026-05-01 13:15 50.68337 -0.23218 36835 ft 418 kts 148°
2026-05-01 13:15 50.65917 -0.20676 37018 ft 418 kts 148°
2026-05-01 13:15 50.63499 -0.18140 37185 ft 419 kts 147°
2026-05-01 13:16 50.58688 -0.13100 37211 ft 417 kts 148°
2026-05-01 13:16 50.53831 -0.08032 37211 ft 420 kts 148°
2026-05-01 13:17 50.44070 0.02115 37212 ft 420 kts 148°
2026-05-01 13:18 50.36758 0.09687 37216 ft 420 kts 148°
2026-05-01 13:18 50.31874 0.14723 37220 ft 421 kts 148°
2026-05-01 13:19 50.26979 0.19755 37222 ft 421 kts 148°
2026-05-01 13:20 50.19635 0.27301 37227 ft 421 kts 148°
2026-05-01 13:20 50.14744 0.32327 37222 ft 421 kts 147°
2026-05-01 13:21 50.07391 0.39863 37221 ft 422 kts 147°
2026-05-01 13:21 50.02493 0.44881 37221 ft 422 kts 147°
2026-05-01 13:22 49.97591 0.49886 37223 ft 421 kts 148°
2026-05-01 13:22 49.92698 0.54860 37223 ft 420 kts 148°
2026-05-01 13:23 49.87804 0.59817 37220 ft 420 kts 147°
2026-05-01 13:23 49.83120 0.65203 37221 ft 420 kts 142°
2026-05-01 13:24 49.78596 0.70925 37213 ft 420 kts 142°
2026-05-01 13:25 49.71795 0.79464 37213 ft 420 kts 142°
2026-05-01 13:25 49.67258 0.85141 37207 ft 420 kts 142°
2026-05-01 13:26 49.62713 0.90805 37198 ft 420 kts 142°
2026-05-01 13:26 49.58172 0.96450 37216 ft 419 kts 142°
2026-05-01 13:27 49.53637 1.02086 37227 ft 418 kts 142°
2026-05-01 13:27 49.46876 1.10492 37228 ft 419 kts 142°
2026-05-01 13:28 49.40049 1.18897 37224 ft 420 kts 142°
2026-05-01 13:29 49.30931 1.30092 37223 ft 420 kts 142°
2026-05-01 13:31 49.17275 1.46789 37221 ft 418 kts 142°
2026-05-01 13:32 49.05918 1.60591 37223 ft 417 kts 142°
2026-05-01 13:33 48.94495 1.74360 37204 ft 420 kts 143°
2026-05-01 13:34 48.85329 1.85355 37221 ft 419 kts 143°
2026-05-01 13:35 48.78469 1.93567 37222 ft 418 kts 143°
2026-05-01 13:36 48.71614 2.01737 37224 ft 418 kts 143°
2026-05-01 13:36 48.64747 2.09874 37227 ft 418 kts 143°
2026-05-01 13:37 48.60932 2.14373 37220 ft 419 kts 143°
2026-05-01 13:37 48.55702 2.20932 37204 ft 419 kts 136°
2026-05-01 13:38 48.49545 2.30309 37215 ft 419 kts 136°
2026-05-01 13:39 48.45434 2.36539 37215 ft 419 kts 136°
2026-05-01 13:39 48.41346 2.42720 37218 ft 419 kts 136°
2026-05-01 13:40 48.37223 2.48925 37209 ft 420 kts 136°
2026-05-01 13:40 48.33081 2.55143 37206 ft 421 kts 136°
2026-05-01 13:41 48.28856 2.61241 37205 ft 420 kts 143°
2026-05-01 13:41 48.23821 2.65566 37211 ft 418 kts 156°
2026-05-01 13:42 48.18573 2.69331 37210 ft 418 kts 153°
2026-05-01 13:42 48.13453 2.73498 37204 ft 420 kts 152°
2026-05-01 13:43 48.08337 2.77724 37206 ft 420 kts 155°
2026-05-01 13:43 48.03193 2.81806 37209 ft 422 kts 140°
2026-05-01 13:44 47.99174 2.88207 37205 ft 423 kts 134°
2026-05-01 13:44 47.95244 2.94762 37201 ft 425 kts 134°
2026-05-01 13:45 47.91296 3.01342 37193 ft 426 kts 134°
2026-05-01 13:45 47.87328 3.07898 37202 ft 426 kts 134°
2026-05-01 13:46 47.83347 3.14438 37208 ft 426 kts 134°
2026-05-01 13:46 47.80032 3.19880 37211 ft 426 kts 134°
2026-05-01 13:47 47.76022 3.26458 37216 ft 427 kts 134°
2026-05-01 13:47 47.72057 3.32947 37192 ft 428 kts 135°
2026-05-01 13:48 47.68046 3.39496 37206 ft 429 kts 135°
2026-05-01 13:48 47.64028 3.46029 37211 ft 429 kts 135°
2026-05-01 13:49 47.60003 3.52557 37220 ft 429 kts 135°
2026-05-01 13:49 47.55980 3.59068 37221 ft 428 kts 135°
2026-05-01 13:50 47.51952 3.65575 37212 ft 429 kts 135°
2026-05-01 13:50 47.47882 3.72129 37211 ft 431 kts 135°
2026-05-01 13:51 47.43847 3.78615 37206 ft 432 kts 135°
2026-05-01 13:51 47.39771 3.85148 37209 ft 433 kts 135°
2026-05-01 13:52 47.35695 3.91678 37218 ft 433 kts 135°
2026-05-01 13:52 47.31602 3.98208 37209 ft 434 kts 136°
2026-05-01 13:53 47.27492 4.04734 37206 ft 436 kts 136°
2026-05-01 13:53 47.21292 4.14573 37199 ft 438 kts 136°
2026-05-01 13:54 47.17140 4.21134 37208 ft 438 kts 136°
2026-05-01 13:54 47.12988 4.27688 37215 ft 438 kts 136°
2026-05-01 13:55 47.08830 4.34235 37205 ft 439 kts 136°
2026-05-01 13:55 47.04652 4.40788 37208 ft 440 kts 136°
2026-05-01 13:56 47.00457 4.47350 37211 ft 441 kts 136°
2026-05-01 13:56 46.96255 4.53916 37213 ft 442 kts 136°
2026-05-01 13:57 46.92042 4.60482 37221 ft 442 kts 136°
2026-05-01 13:57 46.87833 4.67033 37231 ft 442 kts 136°
2026-05-01 13:58 46.83615 4.73571 37211 ft 443 kts 136°
2026-05-01 13:58 46.79386 4.80107 37208 ft 443 kts 136°
2026-05-01 13:59 46.75144 4.86667 37211 ft 444 kts 136°
2026-05-01 13:59 46.70900 4.93215 37209 ft 445 kts 136°
2026-05-01 14:00 46.66639 4.99757 37207 ft 445 kts 136°
2026-05-01 14:00 46.62367 5.06279 37214 ft 445 kts 136°
2026-05-01 14:01 46.58101 5.12798 37222 ft 445 kts 136°
2026-05-01 14:01 46.53833 5.19312 37228 ft 445 kts 136°
2026-05-01 14:02 46.49566 5.25806 37217 ft 445 kts 136°
2026-05-01 14:02 46.45291 5.32299 37233 ft 445 kts 136°
2026-05-01 14:03 46.41010 5.38767 37230 ft 445 kts 136°
2026-05-01 14:03 46.36766 5.45301 37224 ft 446 kts 134°
2026-05-01 14:04 46.32738 5.52158 37237 ft 448 kts 131°
2026-05-01 14:04 46.29441 5.57937 37242 ft 448 kts 131°
2026-05-01 14:05 46.24752 5.65997 37259 ft 448 kts 132°
2026-05-01 14:05 46.20692 5.72828 37264 ft 448 kts 132°
2026-05-01 14:06 46.16609 5.79646 37263 ft 449 kts 133°
2026-05-01 14:06 46.12558 5.86416 37272 ft 449 kts 132°
2026-05-01 14:07 46.08481 5.93245 37261 ft 449 kts 132°
2026-05-01 14:08 46.02366 6.03450 37258 ft 449 kts 132°
2026-05-01 14:08 45.98283 6.10241 37237 ft 449 kts 132°
2026-05-01 14:09 45.94188 6.17029 37231 ft 450 kts 132°
2026-05-01 14:09 45.90081 6.23821 37252 ft 451 kts 132°
2026-05-01 14:10 45.85970 6.30618 37253 ft 451 kts 132°
2026-05-01 14:10 45.81846 6.37372 37265 ft 450 kts 135°
2026-05-01 14:11 45.77009 6.42993 37264 ft 448 kts 146°
2026-05-01 14:11 45.69387 6.50735 37255 ft 448 kts 146°
2026-05-01 14:12 45.64311 6.55899 37263 ft 448 kts 146°
2026-05-01 14:12 45.59220 6.61060 37265 ft 448 kts 146°
2026-05-01 14:13 45.54994 6.65330 37265 ft 448 kts 145°
2026-05-01 14:13 45.49041 6.71331 37279 ft 449 kts 145°
2026-05-01 14:14 45.43939 6.76472 37276 ft 449 kts 145°
2026-05-01 14:14 45.38834 6.81599 37273 ft 450 kts 145°
2026-05-01 14:15 45.33713 6.86724 37302 ft 451 kts 145°
2026-05-01 14:15 45.28585 6.91852 37312 ft 451 kts 145°
2026-05-01 14:16 45.23804 6.97622 37330 ft 452 kts 136°
2026-05-01 14:16 45.19305 7.03840 37328 ft 451 kts 136°
2026-05-01 14:17 45.14802 7.10032 37316 ft 451 kts 136°
2026-05-01 14:17 45.10366 7.16397 37298 ft 451 kts 128°
2026-05-01 14:18 45.06744 7.23564 37295 ft 451 kts 124°
2026-05-01 14:18 45.03722 7.29654 37283 ft 451 kts 124°
2026-05-01 14:19 44.99516 7.38080 37352 ft 452 kts 124°
2026-05-01 14:19 44.95368 7.44734 37354 ft 452 kts 135°
2026-05-01 14:20 44.88658 7.54103 37354 ft 453 kts 135°
2026-05-01 14:21 44.84173 7.60363 37360 ft 454 kts 135°
2026-05-01 14:21 44.79685 7.66610 37375 ft 454 kts 135°
2026-05-01 14:22 44.72948 7.75957 37382 ft 454 kts 135°
2026-05-01 14:22 44.68446 7.82185 37374 ft 454 kts 135°
2026-05-01 14:23 44.63940 7.88402 37374 ft 454 kts 135°
2026-05-01 14:23 44.59427 7.94610 37369 ft 454 kts 135°
2026-05-01 14:24 44.54910 8.00823 37363 ft 455 kts 135°
2026-05-01 14:24 44.50395 8.07020 37352 ft 454 kts 135°
2026-05-01 14:25 44.45871 8.13204 37341 ft 454 kts 135°
2026-05-01 14:25 44.41349 8.19378 37357 ft 455 kts 135°
2026-05-01 14:26 44.34550 8.28627 37347 ft 455 kts 135°
2026-05-01 14:27 44.30014 8.34786 37336 ft 455 kts 135°
2026-05-01 14:27 44.25470 8.40932 37328 ft 455 kts 135°
2026-05-01 14:28 44.18646 8.50145 37318 ft 456 kts 135°
2026-05-01 14:28 44.14851 8.55249 37308 ft 456 kts 135°
2026-05-01 14:29 44.10282 8.61385 37317 ft 456 kts 135°
2026-05-01 14:30 44.01145 8.73619 37310 ft 456 kts 134°
2026-05-01 14:31 43.94641 8.83274 37302 ft 456 kts 129°
2026-05-01 14:31 43.90457 8.89883 37303 ft 457 kts 129°
2026-05-01 14:32 43.86208 8.96436 37304 ft 457 kts 130°
2026-05-01 14:32 43.81905 9.02929 37301 ft 458 kts 130°
2026-05-01 14:33 43.77585 9.09422 37324 ft 458 kts 130°
2026-05-01 14:33 43.73268 9.15927 37312 ft 459 kts 130°
2026-05-01 14:34 43.68948 9.22435 37314 ft 460 kts 130°
2026-05-01 14:34 43.64610 9.28939 37312 ft 460 kts 130°
2026-05-01 14:35 43.60273 9.35434 37308 ft 461 kts 130°
2026-05-01 14:35 43.55921 9.41935 37308 ft 461 kts 130°
2026-05-01 14:36 43.51571 9.48431 37335 ft 461 kts 129°
2026-05-01 14:36 43.47218 9.54932 37322 ft 462 kts 130°
2026-05-01 14:37 43.42840 9.61421 37315 ft 462 kts 130°
2026-05-01 14:37 43.38456 9.67897 37303 ft 463 kts 130°
2026-05-01 14:38 43.34062 9.74385 37295 ft 464 kts 130°
2026-05-01 14:38 43.29667 9.80877 37292 ft 464 kts 130°
2026-05-01 14:39 43.25258 9.87367 37316 ft 465 kts 129°
2026-05-01 14:39 43.20841 9.93848 37292 ft 465 kts 129°
2026-05-01 14:40 43.16415 10.00315 37281 ft 466 kts 129°
2026-05-01 14:40 43.11974 10.06804 37280 ft 467 kts 129°
2026-05-01 14:41 43.07527 10.13286 37281 ft 467 kts 129°
2026-05-01 14:41 43.03078 10.19765 37277 ft 467 kts 129°
2026-05-01 14:42 42.98622 10.26237 37284 ft 468 kts 129°
2026-05-01 14:42 42.94175 10.32666 37256 ft 469 kts 129°
2026-05-01 14:43 42.89657 10.39183 37251 ft 470 kts 129°
2026-05-01 14:43 42.85159 10.45665 37249 ft 471 kts 129°
2026-05-01 14:44 42.80651 10.52163 36994 ft 473 kts 129°
2026-05-01 14:44 42.76161 10.58609 35922 ft 470 kts 130°
2026-05-01 14:44 42.73912 10.61822 35393 ft 467 kts 130°
2026-05-01 14:45 42.71818 10.65157 34866 ft 460 kts 121°
2026-05-01 14:45 42.68437 10.72411 33515 ft 450 kts 117°
2026-05-01 14:45 42.66795 10.76005 32924 ft 444 kts 117°
2026-05-01 14:46 42.65175 10.79541 32360 ft 438 kts 116°
2026-05-01 14:46 42.61999 10.86440 31296 ft 424 kts 115°
2026-05-01 14:46 42.60441 10.89818 30781 ft 418 kts 115°
2026-05-01 14:47 42.58909 10.93133 30255 ft 411 kts 115°
2026-05-01 14:47 42.57402 10.96397 29634 ft 405 kts 114°
2026-05-01 14:47 42.55922 10.99622 29004 ft 400 kts 114°
2026-05-01 14:48 42.53161 11.06061 27921 ft 391 kts 111°
2026-05-01 14:48 42.51846 11.09264 27463 ft 387 kts 111°
2026-05-01 14:48 42.49253 11.15598 26552 ft 381 kts 111°
2026-05-01 14:49 42.46677 11.21813 25674 ft 376 kts 111°
2026-05-01 14:49 42.44096 11.27947 25226 ft 374 kts 111°
2026-05-01 14:50 42.42383 11.32016 25266 ft 376 kts 110°
2026-05-01 14:50 42.38948 11.40146 25242 ft 373 kts 110°
2026-05-01 14:51 42.37663 11.43188 25241 ft 373 kts 110°
2026-05-01 14:51 42.35084 11.49283 25239 ft 373 kts 110°
2026-05-01 14:52 42.32507 11.55364 25240 ft 373 kts 110°
2026-05-01 14:52 42.31217 11.58408 25239 ft 373 kts 110°
2026-05-01 14:52 42.28642 11.64465 24870 ft 369 kts 110°
2026-05-01 14:53 42.27366 11.67462 24448 ft 367 kts 110°
2026-05-01 14:53 42.26096 11.70431 24118 ft 363 kts 110°
2026-05-01 14:53 42.24840 11.73362 23753 ft 359 kts 110°
2026-05-01 14:53 42.23596 11.76264 23303 ft 355 kts 110°
2026-05-01 14:54 42.22365 11.79137 22855 ft 353 kts 110°
2026-05-01 14:54 42.21145 11.81990 22410 ft 349 kts 110°
2026-05-01 14:54 42.19938 11.84809 21857 ft 345 kts 110°
2026-05-01 14:54 42.18742 11.87598 21338 ft 342 kts 110°
2026-05-01 14:55 42.17559 11.90356 20819 ft 339 kts 110°
2026-05-01 14:55 42.16384 11.93095 20317 ft 336 kts 110°
2026-05-01 14:55 42.15220 11.95804 19828 ft 333 kts 110°
2026-05-01 14:55 42.14063 11.98488 19354 ft 330 kts 110°
2026-05-01 14:56 42.12917 12.01148 18889 ft 327 kts 110°
2026-05-01 14:56 42.11778 12.03792 18428 ft 324 kts 110°
2026-05-01 14:56 42.10653 12.06401 17955 ft 320 kts 111°
2026-05-01 14:56 42.09540 12.08981 17471 ft 317 kts 111°
2026-05-01 14:57 42.08436 12.11540 16991 ft 316 kts 111°
2026-05-01 14:57 42.06243 12.16613 16317 ft 312 kts 112°
2026-05-01 14:57 42.05151 12.19136 15829 ft 311 kts 112°
2026-05-01 14:58 42.04066 12.21640 15496 ft 309 kts 112°
2026-05-01 14:58 42.02984 12.24133 15147 ft 308 kts 112°
2026-05-01 14:58 42.01906 12.26617 14811 ft 307 kts 113°
2026-05-01 14:58 42.00832 12.29084 14584 ft 302 kts 113°
2026-05-01 14:59 41.99775 12.31482 14461 ft 295 kts 116°
2026-05-01 14:59 41.98438 12.33569 14337 ft 298 kts 133°
2026-05-01 14:59 41.96686 12.35060 14179 ft 302 kts 151°
2026-05-01 14:59 41.94684 12.35958 13878 ft 302 kts 158°
2026-05-01 15:00 41.90708 12.37599 13058 ft 299 kts 158°
2026-05-01 15:00 41.88725 12.38417 12666 ft 297 kts 158°
2026-05-01 15:00 41.86771 12.39227 12399 ft 288 kts 158°
2026-05-01 15:01 41.84880 12.40010 12017 ft 282 kts 158°
2026-05-01 15:01 41.83019 12.40786 11569 ft 278 kts 158°
2026-05-01 15:01 41.81190 12.41553 11147 ft 273 kts 158°
2026-05-01 15:01 41.79386 12.42310 10719 ft 270 kts 158°
2026-05-01 15:02 41.77606 12.43055 10234 ft 267 kts 158°
2026-05-01 15:02 41.77010 12.43304 10082 ft 266 kts 158°
2026-05-01 15:02 41.74100 12.44514 9273 ft 261 kts 158°
2026-05-01 15:02 41.72368 12.45233 8965 ft 259 kts 159°
2026-05-01 15:03 41.70647 12.45949 8607 ft 259 kts 159°
2026-05-01 15:03 41.68932 12.46663 8299 ft 258 kts 159°
2026-05-01 15:03 41.67220 12.47376 7854 ft 260 kts 159°
2026-05-01 15:03 41.65487 12.48114 7531 ft 258 kts 159°
2026-05-01 15:04 41.63792 12.48843 7256 ft 255 kts 159°
2026-05-01 15:04 41.62112 12.49574 6950 ft 253 kts 159°
2026-05-01 15:04 41.60425 12.50220 6622 ft 253 kts 172°
2026-05-01 15:04 41.58687 12.50034 6312 ft 252 kts 199°
2026-05-01 15:05 41.57228 12.48887 6165 ft 244 kts 225°
2026-05-01 15:05 41.56296 12.47073 6032 ft 233 kts 252°
2026-05-01 15:05 41.56014 12.45019 5904 ft 221 kts 276°
2026-05-01 15:05 41.56333 12.43083 5774 ft 209 kts 298°
2026-05-01 15:06 41.57054 12.41443 5594 ft 203 kts 306°
2026-05-01 15:06 41.57805 12.39848 5364 ft 203 kts 306°
2026-05-01 15:06 41.58564 12.38252 5114 ft 203 kts 310°
2026-05-01 15:06 41.59538 12.36931 4871 ft 198 kts 330°
2026-05-01 15:07 41.60796 12.36122 4357 ft 207 kts 343°
2026-05-01 15:07 41.62191 12.35498 3927 ft 215 kts 345°
2026-05-01 15:07 41.63629 12.34896 3601 ft 217 kts 345°
2026-05-01 15:07 41.65068 12.34298 3304 ft 215 kts 345°
2026-05-01 15:08 41.66460 12.33718 3020 ft 204 kts 345°
2026-05-01 15:08 41.67786 12.33166 2750 ft 196 kts 345°
2026-05-01 15:08 41.69071 12.32632 2494 ft 191 kts 345°
2026-05-01 15:08 41.70291 12.32123 2262 ft 177 kts 344°
2026-05-01 15:09 41.71435 12.31646 2027 ft 165 kts 344°
2026-05-01 15:09 41.72498 12.31203 1801 ft 157 kts 345°
2026-05-01 15:09 41.73511 12.30781 1596 ft 149 kts 345°
2026-05-01 15:09 41.74486 12.30374 1398 ft 145 kts 344°
2026-05-01 15:10 41.75445 12.29974 1215 ft 143 kts 346°
2026-05-01 15:10 41.77326 12.29187 820 ft 141 kts 347°
2026-05-01 15:10 41.78271 12.28783 620 ft 142 kts 345°
2026-05-01 15:11 41.79214 12.28387 441 ft 142 kts 345°
2026-05-01 15:11 41.81100 12.27604 105 ft 141 kts 347°
2026-05-01 15:11 41.82010 12.27233 12 ft 125 kts 345°
2026-05-01 15:12 41.82671 12.26966 13 ft 77 kts 342°
2026-05-01 15:12 41.83060 12.26744 11 ft 21 kts 325°
2026-05-01 15:12 41.83145 12.26644 10 ft 8 kts 314°
2026-05-01 15:13 41.83251 12.26479 12 ft 8 kts 285°
2026-05-01 15:14 41.83151 12.26432 12 ft 11 kts 163°
2026-05-01 15:14 41.83076 12.26463 11 ft 11 kts 162°
2026-05-01 15:14 41.82923 12.26529 11 ft 12 kts 162°
2026-05-01 15:15 41.82818 12.26571 11 ft 13 kts 163°
2026-05-01 15:15 41.82684 12.26627 12 ft 23 kts 162°
2026-05-01 15:16 41.82322 12.26780 11 ft 29 kts 163°
2026-05-01 15:16 41.81926 12.26944 13 ft 31 kts 163°
2026-05-01 15:17 41.81512 12.27117 13 ft 32 kts 163°
2026-05-01 15:18 41.80963 12.27346 12 ft 25 kts 168°
2026-05-01 15:18 41.80788 12.27323 12 ft 26 kts 189°
2026-05-01 15:19 41.80517 12.26720 14 ft 28 kts 250°
2026-05-01 15:19 41.80394 12.26273 15 ft 24 kts 249°
2026-05-01 15:19 41.80334 12.26058 14 ft 25 kts 251°
2026-05-01 15:20 41.80207 12.25590 15 ft 28 kts 250°
2026-05-01 15:20 41.80146 12.25371 14 ft 21 kts 249°
2026-05-01 15:20 41.80098 12.25186 15 ft 22 kts 256°
2026-05-01 15:21 41.80111 12.24977 14 ft 23 kts 276°
2026-05-01 15:21 41.80076 12.24760 14 ft 24 kts 248°
2026-05-01 15:21 41.80021 12.24553 13 ft 22 kts 251°
2026-05-01 15:21 41.79969 12.24373 14 ft 18 kts 249°
2026-05-01 15:22 41.79864 12.24282 15 ft 9 kts 155°
2026-05-01 15:22 41.79805 12.24249 14 ft 13 kts 235°
2026-05-01 15:22 41.79769 12.24124 16 ft 15 kts 251°
2026-05-01 15:23 41.79730 12.23982 14 ft 17 kts 249°
2026-05-01 15:23 41.79655 12.23883 14 ft 17 kts 168°
2026-05-01 15:23 41.79540 12.23941 14 ft 18 kts 160°
2026-05-01 15:23 41.79415 12.24003 14 ft 19 kts 160°
2026-05-01 15:24 41.79343 12.24043 14 ft 8 kts 156°
2026-05-01 15:24 41.79294 12.24093 14 ft 10 kts 114°
2026-05-01 15:24 41.79312 12.24190 15 ft 12 kts 69°
2026-05-01 15:24 41.79342 12.24292 14 ft 9 kts 69°
2026-05-01 15:25 41.79342 12.24356 14 ft 8 kts 120°
2026-05-01 15:25 41.79305 12.24431 16 ft 11 kts 120°
2026-05-01 15:25 41.79302 12.24532 14 ft 12 kts 76°
2026-05-01 15:25 41.79322 12.24641 14 ft 9 kts 77°
2026-05-01 15:26 41.79334 12.24697 14 ft 5 kts 60°
2026-05-01 15:26 41.79366 12.24700 14 ft 6 kts 344°
2026-05-01 15:26 41.79391 12.24692 15 ft 2 kts 346°
2026-05-01 15:26 41.79398 12.24690 14 ft 0 kts 346°